Weather History for Erie, PA

Change the Weather History Date:

Monday, February 3, 2014

  Actual Average Record
Temperature  
Mean Temperature 21 °F 27 °F  
Max Temperature 23 °F 34 °F 55 °F (1991)
Min Temperature 19 °F 20 °F -11 °F (1881)
Degree Days  
Heating Degree Days 44 38  
Month to date heating degree days 107 114  
Since 1 July heating degree days 3688 3452  
Cooling Degree Days 0 0  
Month to date cooling degree days 0 0  
Year to date cooling degree days 0 0  
Moisture  
Dew Point 15 °F    
Average Humidity 75    
Maximum Humidity 81    
Minimum Humidity 68    
Precipitation  
Precipitation 0.02 in 0.08 in 0.47 in (1952)
Month to date precipitation 0.93 0.25  
Year to date precipitation 3.49 3.20  
Snow  
Snow 0.40 in 0.70 in - ()
Month to date snowfall 2.3 2.3  
Since 1 July snowfall 94.0 68.1  
Snow Depth 1.00 in    
Sea Level Pressure  
Sea Level Pressure 30.30 in    
Wind  
Wind Speed 5 mph (NNE)    
Max Wind Speed 10 mph    
Max Gust Speed 14 mph    
Visibility 6 miles    
Events Snow    
T = Trace of Precipitation, MM = Missing Value Source: NWS Daily Summary

Daily Weather History Graph

Daily Weather History Graph

Search for Another Location

Airport:

Trip Planner

Search our weather history database for the weather conditions in past years. The results will help you decide how hot, cold, wet, or windy it might be!

Date:

Astronomy

Feb. 03, 2014 Rise Set
Actual Time 7:31 AM EST 5:38 PM EST
Civil Twilight 7:02 AM EST 6:07 PM EST
Nautical Twilight 6:28 AM EST 6:40 PM EST
Astronomical Twilight 5:56 AM EST 7:13 PM EST
Moon 9:27 AM EST (2/3) 10:32 PM EST (2/3)
Length of Visible Light 11h 05m
Length of Day
10h 06m
Waxing Crescent, 19% of the Moon is Illuminated
Feb 3
Waxing Crescent
Feb 6
First Quarter
Feb 14
Full
Feb 22
Last Quarter
Mar 1
New

Hourly Weather History & Observations

Time (EST) Temp. Windchill Dew Point Humidity Pressure Visibility Wind Dir Wind Speed Gust Speed Precip Events Conditions
12:51 AM 21.0 °F 11.4 °F 12.9 °F 71% 30.25 in 10.0 mi North 8.1 mph - N/A   Overcast
1:51 AM 19.9 °F 12.1 °F 12.0 °F 71% 30.25 in 10.0 mi North 5.8 mph - N/A   Overcast
2:51 AM 19.9 °F 14.9 °F 12.0 °F 71% 30.26 in 10.0 mi NNW 3.5 mph - N/A   Overcast
3:51 AM 19.9 °F 14.9 °F 12.9 °F 74% 30.27 in 10.0 mi North 3.5 mph - N/A   Overcast
4:51 AM 19.9 °F 12.1 °F 12.0 °F 71% 30.24 in 10.0 mi NNE 5.8 mph - N/A   Overcast
5:51 AM 19.9 °F 13.4 °F 12.9 °F 74% 30.25 in 10.0 mi NNE 4.6 mph - N/A   Overcast
6:51 AM 19.9 °F 11.1 °F 14.0 °F 78% 30.24 in 10.0 mi North 6.9 mph - N/A   Overcast
7:51 AM 19.9 °F 11.1 °F 14.0 °F 78% 30.26 in 10.0 mi NNE 6.9 mph - N/A   Overcast
8:51 AM 21.0 °F 12.4 °F 15.1 °F 78% 30.29 in 4.0 mi North 6.9 mph - N/A   Haze
9:06 AM 19.4 °F 10.4 °F 15.8 °F 86% 30.26 in 1.8 mi North 6.9 mph - 0.00 in Snow Light Snow
9:39 AM 21.2 °F 13.6 °F 15.8 °F 80% 30.26 in 2.0 mi North 5.8 mph - 0.00 in Snow Light Snow
9:51 AM 21.0 °F 12.4 °F 16.0 °F 81% 30.30 in 2.0 mi NNE 6.9 mph - 0.00 in Snow Light Snow
9:59 AM 21.2 °F 10.9 °F 15.8 °F 80% 30.27 in 1.8 mi NNE 9.2 mph - 0.00 in Snow Light Snow
10:17 AM 21.2 °F 11.7 °F 15.8 °F 80% 30.27 in 2.0 mi NNE 8.1 mph - 0.00 in Snow Light Snow
10:32 AM 21.2 °F 11.7 °F 17.6 °F 86% 30.27 in 1.8 mi North 8.1 mph - 0.00 in Snow Light Snow
10:40 AM 21.2 °F 10.9 °F 15.8 °F 80% 30.28 in 2.5 mi North 9.2 mph - 0.00 in Snow Light Snow
10:48 AM 21.2 °F 10.1 °F 15.8 °F 80% 30.27 in 4.0 mi NNE 10.4 mph - 0.00 in   Haze
10:51 AM 21.0 °F 10.6 °F 16.0 °F 81% 30.31 in 4.0 mi NNE 9.2 mph - 0.00 in   Haze
11:51 AM 21.9 °F 12.5 °F 16.0 °F 78% 30.32 in 6.0 mi NNE 8.1 mph - 0.00 in   Haze
12:29 PM 21.2 °F 12.6 °F 17.6 °F 86% 30.27 in 2.0 mi North 6.9 mph - 0.00 in Snow Light Snow
12:36 PM 23.0 °F 13.9 °F 17.6 °F 80% 30.27 in 3.0 mi North 8.1 mph - 0.00 in Snow Light Snow
12:51 PM 23.0 °F 13.9 °F 17.1 °F 78% 30.31 in 3.0 mi North 8.1 mph - 0.00 in Snow Light Snow
1:51 PM 23.0 °F 13.9 °F 17.1 °F 78% 30.30 in 1.8 mi NNE 8.1 mph - 0.00 in Snow Light Snow
2:17 PM 23.0 °F 14.7 °F 15.8 °F 74% 30.27 in 2.5 mi North 6.9 mph - 0.00 in Snow Light Snow
2:39 PM 23.0 °F 17.0 °F 17.6 °F 80% 30.27 in 3.0 mi NE 4.6 mph - 0.00 in Snow Light Snow
2:46 PM 23.0 °F 15.8 °F 17.6 °F 80% 30.28 in 3.0 mi NNE 5.8 mph - 0.00 in Snow Light Snow
2:51 PM 23.0 °F 14.7 °F 17.1 °F 78% 30.32 in 3.0 mi NNE 6.9 mph - 0.00 in Snow Light Snow
3:51 PM 23.0 °F 15.8 °F 16.0 °F 74% 30.33 in 9.0 mi NE 5.8 mph - 0.00 in   Overcast
4:51 PM 23.0 °F - 14.0 °F 68% 30.35 in 10.0 mi Calm Calm - N/A   Overcast
5:51 PM 21.9 °F - 14.0 °F 72% 30.37 in 10.0 mi Calm Calm - N/A   Overcast
6:51 PM 21.9 °F - 14.0 °F 72% 30.38 in 10.0 mi Calm Calm - N/A   Overcast
7:51 PM 21.0 °F 16.2 °F 14.0 °F 74% 30.38 in 10.0 mi North 3.5 mph - N/A   Overcast
8:51 PM 21.0 °F - 14.0 °F 74% 30.39 in 10.0 mi Calm Calm - N/A   Mostly Cloudy
9:51 PM 21.0 °F - 12.0 °F 68% 30.40 in 10.0 mi Calm Calm - N/A   Overcast
10:51 PM 19.9 °F - 12.0 °F 71% 30.41 in 10.0 mi Calm Calm - N/A   Overcast
11:51 PM 19.0 °F 13.9 °F 12.0 °F 74% 30.42 in 10.0 mi SSE 3.5 mph - N/A   Overcast